| time (UTC) | temp F | wind direction | speed MPH | gust MPH | rain 1hr in | rain 24hr in | rain mn in | humidity % | barometer mb |
| 20260902235052 | 100 | 291 | 5.0 | 11.0 | 0.00 | 0.00 | 0.00 | 24 | 1006.5 |
| 20260902234607 | 100 | 307 | 6.0 | 11.0 | 0.00 | 0.00 | 0.00 | 24 | 1006.6 |
| 20260902234053 | 101 | 271 | 4.0 | 13.0 | 0.00 | 0.00 | 0.00 | 24 | 1006.6 |
| 20260902233551 | 101 | 300 | 4.0 | 13.0 | 0.00 | 0.00 | 0.00 | 24 | 1006.7 |
| 20260902233052 | 101 | 292 | 2.0 | 11.0 | 0.00 | 0.00 | 0.00 | 23 | 1006.7 |
| 20260902232554 | 102 | 270 | 4.0 | 8.0 | 0.00 | 0.00 | 0.00 | 23 | 1006.8 |
| 20260902232049 | 102 | 253 | 3.0 | 7.0 | 0.00 | 0.00 | 0.00 | 24 | 1006.8 |
| 20260902231604 | 101 | 180 | 2.0 | 8.0 | 0.00 | 0.00 | 0.00 | 24 | 1007.0 |
| 20260902231048 | 101 | 188 | 3.0 | 10.0 | 0.00 | 0.00 | 0.00 | 24 | 1007.0 |
| 20260902230547 | 101 | 179 | 3.0 | 10.0 | 0.00 | 0.00 | 0.00 | 24 | 1007.0 |
| 20260902230052 | 101 | 157 | 3.0 | 10.0 | 0.00 | 0.00 | 0.00 | 24 | 1007.1 |
| 20260902225548 | 101 | 273 | 4.0 | 11.0 | 0.00 | 0.00 | 0.00 | 25 | 1007.1 |
| 20260902225048 | 102 | 230 | 5.0 | 11.0 | 0.00 | 0.00 | 0.00 | 24 | 1007.3 |
| 20260902224547 | 102 | 259 | 2.0 | 10.0 | 0.00 | 0.00 | 0.00 | 25 | 1007.2 |
| 20260902224045 | 102 | 260 | 3.0 | 10.0 | 0.00 | 0.00 | 0.00 | 24 | 1007.4 |
| 20260902223544 | 102 | 175 | 2.0 | 13.0 | 0.00 | 0.00 | 0.00 | 24 | 1007.5 |
| 20260902223046 | 102 | 207 | 3.0 | 13.0 | 0.00 | 0.00 | 0.00 | 24 | 1007.5 |
| 20260902222543 | 102 | 235 | 5.0 | 13.0 | 0.00 | 0.00 | 0.00 | 25 | 1007.7 |
| 20260902222041 | 102 | 223 | 2.0 | 14.0 | 0.00 | 0.00 | 0.00 | 25 | 1007.6 |
| 20260902221541 | 101 | 215 | 4.0 | 14.0 | 0.00 | 0.00 | 0.00 | 25 | 1007.7 |
| 20260902221043 | 102 | 160 | 5.0 | 12.0 | 0.00 | 0.00 | 0.00 | 25 | 1007.7 |
| 20260902220544 | 102 | 178 | 4.0 | 7.0 | 0.00 | 0.00 | 0.00 | 25 | 1007.8 |
| 20260902220040 | 102 | 304 | 3.0 | 7.0 | 0.00 | 0.00 | 0.00 | 25 | 1007.8 |
| 20260902215539 | 101 | 196 | 2.0 | 7.0 | 0.00 | 0.00 | 0.00 | 26 | 1007.9 |
| 20260902215036 | 101 | 184 | 2.0 | 9.0 | 0.00 | 0.00 | 0.00 | 26 | 1008.1 |
| 20260902214539 | 100 | 325 | 3.0 | 10.0 | 0.00 | 0.00 | 0.00 | 27 | 1008.1 |
| 20260902214038 | 100 | 283 | 5.0 | 10.0 | 0.00 | 0.00 | 0.00 | 27 | 1008.1 |
| 20260902213534 | 100 | 185 | 3.0 | 9.0 | 0.00 | 0.00 | 0.00 | 28 | 1008.2 |
| 20260902213034 | 100 | 258 | 4.0 | 14.0 | 0.00 | 0.00 | 0.00 | 28 | 1008.2 |
| 20260902212534 | 99 | 229 | 5.0 | 14.0 | 0.00 | 0.00 | 0.00 | 29 | 1008.2 |
| 20260902212033 | 99 | 288 | 2.0 | 12.0 | 0.00 | 0.00 | 0.00 | 31 | 1008.3 |
| 20260902211537 | 99 | 265 | 6.0 | 12.0 | 0.00 | 0.00 | 0.00 | 30 | 1008.4 |
| 20260902211036 | 99 | 273 | 2.0 | 11.0 | 0.00 | 0.00 | 0.00 | 31 | 1008.5 |
| 20260902210531 | 99 | 300 | 5.0 | 11.0 | 0.00 | 0.00 | 0.00 | 30 | 1008.6 |
| 20260902210030 | 99 | 284 | 5.0 | 11.0 | 0.00 | 0.00 | 0.00 | 28 | 1008.6 |
| 20260902205529 | 100 | 268 | 5.0 | 10.0 | 0.00 | 0.00 | 0.00 | 32 | 1008.7 |
| 20260902205029 | 100 | 279 | 2.0 | 7.0 | 0.00 | 0.00 | 0.00 | 33 | 1008.8 |
| 20260902204529 | 99 | 163 | 3.0 | 8.0 | 0.00 | 0.00 | 0.00 | 32 | 1008.9 |
| 20260902204028 | 99 | 323 | 4.0 | 8.0 | 0.00 | 0.00 | 0.00 | 33 | 1008.8 |
| 20260902203530 | 100 | 241 | 2.0 | 7.0 | 0.00 | 0.00 | 0.00 | 32 | 1008.9 |
| 20260902203027 | 99 | 249 | 3.0 | 7.0 | 0.00 | 0.00 | 0.00 | 31 | 1009.1 |
| 20260902202529 | 99 | 200 | 2.0 | 8.0 | 0.00 | 0.00 | 0.00 | 33 | 1009.2 |
| 20260902202027 | 99 | 259 | 4.0 | 9.0 | 0.00 | 0.00 | 0.00 | 32 | 1009.3 |
| 20260902201534 | 98 | 275 | 3.0 | 9.0 | 0.00 | 0.00 | 0.00 | 32 | 1009.4 |
| 20260902201026 | 98 | 348 | 2.0 | 11.0 | 0.00 | 0.00 | 0.00 | 31 | 1009.5 |
| 20260902200526 | 98 | 190 | 5.0 | 11.0 | 0.00 | 0.00 | 0.00 | 31 | 1009.5 |
| 20260902200026 | 98 | 239 | 1.0 | 9.0 | 0.00 | 0.00 | 0.00 | 32 | 1009.6 |
| 20260902195526 | 99 | 246 | 3.0 | 9.0 | 0.00 | 0.00 | 0.00 | 32 | 1009.7 |
| 20260902195025 | 99 | 267 | 1.0 | 6.0 | 0.00 | 0.00 | 0.00 | 31 | 1009.8 |
| 20260902194525 | 99 | 247 | 3.0 | 5.0 | 0.00 | 0.00 | 0.00 | 31 | 1009.9 |
| 20260902194025 | 99 | 206 | 2.0 | 7.0 | 0.00 | 0.00 | 0.00 | 31 | 1009.9 |
| 20260902193524 | 99 | 179 | 2.0 | 7.0 | 0.00 | 0.00 | 0.00 | 32 | 1010.0 |
| 20260902193023 | 99 | 186 | 1.0 | 6.0 | 0.00 | 0.00 | 0.00 | 32 | 1010.0 |
| 20260902192521 | 99 | 207 | 1.0 | 6.0 | 0.00 | 0.00 | 0.00 | 33 | 1010.2 |
| 20260902192022 | 98 | 207 | 1.0 | 5.0 | 0.00 | 0.00 | 0.00 | 33 | 1010.3 |
| 20260902191521 | 98 | 205 | 2.0 | 5.0 | 0.00 | 0.00 | 0.00 | 32 | 1010.4 |
| 20260902191019 | 98 | 150 | 2.0 | 6.0 | 0.00 | 0.00 | 0.00 | 32 | 1010.4 |
| 20260902190519 | 98 | 174 | 1.0 | 6.0 | 0.00 | 0.00 | 0.00 | 34 | 1010.5 |
| 20260902190019 | 97 | 211 | 1.0 | 5.0 | 0.00 | 0.00 | 0.00 | 33 | 1010.5 |
| 20260902185518 | 97 | 263 | 1.0 | 6.0 | 0.00 | 0.00 | 0.00 | 34 | 1010.6 |
| 20260902185017 | 96 | 144 | 2.0 | 6.0 | 0.00 | 0.00 | 0.00 | 36 | 1010.6 |
| 20260902184515 | 95 | 181 | 1.0 | 6.0 | 0.00 | 0.00 | 0.00 | 36 | 1010.8 |
| 20260902184014 | 95 | 218 | 1.0 | 5.0 | 0.00 | 0.00 | 0.00 | 37 | 1010.8 |
| 20260902183513 | 95 | 273 | 2.0 | 5.0 | 0.00 | 0.00 | 0.00 | 37 | 1010.9 |
| 20260902183012 | 94 | 198 | 2.0 | 5.0 | 0.00 | 0.00 | 0.00 | 37 | 1011.0 |
| 20260902182511 | 94 | 211 | 2.0 | 7.0 | 0.00 | 0.00 | 0.00 | 38 | 1011.1 |
| 20260902182012 | 93 | 242 | 2.0 | 7.0 | 0.00 | 0.00 | 0.00 | 38 | 1011.1 |
| 20260902181510 | 93 | 244 | 2.0 | 7.0 | 0.00 | 0.00 | 0.00 | 38 | 1011.2 |
| 20260902181010 | 94 | 205 | 2.0 | 7.0 | 0.00 | 0.00 | 0.00 | 37 | 1011.2 |
| 20260902180510 | 94 | 193 | 1.0 | 4.0 | 0.00 | 0.00 | 0.00 | 37 | 1011.2 |
| 20260902180010 | 94 | 186 | 1.0 | 7.0 | 0.00 | 0.00 | 0.00 | 37 | 1011.2 |
| 20260902175509 | 94 | 286 | 3.0 | 8.0 | 0.00 | 0.00 | 0.00 | 37 | 1011.4 |
| 20260902175008 | 94 | 269 | 3.0 | 8.0 | 0.00 | 0.00 | 0.00 | 37 | 1011.4 |
| 20260902174508 | 94 | 281 | 3.0 | 7.0 | 0.00 | 0.00 | 0.00 | 37 | 1011.5 |
| 20260902174009 | 94 | 208 | 1.0 | 7.0 | 0.00 | 0.00 | 0.00 | 37 | 1011.4 |
| 20260902173505 | 94 | 218 | 1.0 | 8.0 | 0.00 | 0.00 | 0.00 | 36 | 1011.4 |
| 20260902173019 | 93 | 202 | 1.0 | 7.0 | 0.00 | 0.00 | 0.00 | 37 | 1011.4 |
| 20260902172507 | 93 | 221 | 2.0 | 7.0 | 0.00 | 0.00 | 0.00 | 37 | 1011.5 |
| 20260902172005 | 94 | 191 | 1.0 | 9.0 | 0.00 | 0.00 | 0.00 | 37 | 1011.5 |
| 20260902171504 | 93 | 186 | 2.0 | 9.0 | 0.00 | 0.00 | 0.00 | 37 | 1011.4 |
| 20260902171003 | 93 | 194 | 2.0 | 7.0 | 0.00 | 0.00 | 0.00 | 37 | 1011.5 |
| 20260902170502 | 93 | 137 | 1.0 | 5.0 | 0.00 | 0.00 | 0.00 | 37 | 1011.4 |
| 20260902170003 | 93 | 202 | 2.0 | 5.0 | 0.00 | 0.00 | 0.00 | 37 | 1011.4 |
| 20260902165600 | 93 | 213 | 2.0 | 6.0 | 0.00 | 0.00 | 0.00 | 36 | 1011.5 |
| 20260902165101 | 92 | 204 | 2.0 | 6.0 | 0.00 | 0.00 | 0.00 | 37 | 1011.5 |
| 20260902164557 | 92 | 206 | 2.0 | 7.0 | 0.00 | 0.00 | 0.00 | 37 | 1011.4 |
| 20260902164056 | 92 | 246 | 2.0 | 5.0 | 0.00 | 0.00 | 0.00 | 38 | 1011.3 |
| 20260902163555 | 92 | 254 | 1.0 | 5.0 | 0.00 | 0.00 | 0.00 | 38 | 1011.3 |
| 20260902163054 | 92 | 225 | 1.0 | 6.0 | 0.00 | 0.00 | 0.00 | 38 | 1011.3 |
| 20260902162555 | 92 | 200 | 2.0 | 5.0 | 0.00 | 0.00 | 0.00 | 38 | 1011.4 |
| 20260902162051 | 92 | 234 | 1.0 | 7.0 | 0.00 | 0.00 | 0.00 | 38 | 1011.3 |
| 20260902161558 | 91 | 201 | 1.0 | 6.0 | 0.00 | 0.00 | 0.00 | 38 | 1011.2 |
| 20260902161049 | 91 | 253 | 1.0 | 7.0 | 0.00 | 0.00 | 0.00 | 38 | 1011.2 |
| 20260902160547 | 91 | 227 | 3.0 | 7.0 | 0.00 | 0.00 | 0.00 | 38 | 1011.2 |
| 20260902160049 | 91 | 182 | 0.0 | 4.0 | 0.00 | 0.00 | 0.00 | 40 | 1011.2 |
| 20260902155544 | 90 | 205 | 0.0 | 4.0 | 0.00 | 0.00 | 0.00 | 40 | 1011.2 |
| 20260902155043 | 90 | 190 | 1.0 | 6.0 | 0.00 | 0.00 | 0.00 | 41 | 1011.2 |
| 20260902154543 | 90 | 267 | 2.0 | 6.0 | 0.00 | 0.00 | 0.00 | 41 | 1011.2 |
| 20260902154041 | 90 | 232 | 3.0 | 7.0 | 0.00 | 0.00 | 0.00 | 41 | 1011.2 |
| 20260902153539 | 90 | 295 | 2.0 | 7.0 | 0.00 | 0.00 | 0.00 | 41 | 1011.2 |
| 20260902153041 | 89 | 198 | 2.0 | 5.0 | 0.00 | 0.00 | 0.00 | 41 | 1011.1 |
| 20260902152537 | 89 | 155 | 1.0 | 5.0 | 0.00 | 0.00 | 0.00 | 43 | 1011.1 |
| 20260902152036 | 89 | 246 | 1.0 | 5.0 | 0.00 | 0.00 | 0.00 | 43 | 1011.1 |
| 20260902151535 | 88 | 145 | 1.0 | 6.0 | 0.00 | 0.00 | 0.00 | 43 | 1011.1 |
| 20260902151035 | 88 | 302 | 1.0 | 6.0 | 0.00 | 0.00 | 0.00 | 44 | 1011.1 |
| 20260902150534 | 88 | 205 | 1.0 | 4.0 | 0.00 | 0.00 | 0.00 | 43 | 1011.1 |
| 20260902150033 | 88 | 227 | 1.0 | 5.0 | 0.00 | 0.00 | 0.00 | 44 | 1011.0 |
| 20260902145530 | 88 | 196 | 1.0 | 5.0 | 0.00 | 0.00 | 0.00 | 45 | 1010.9 |
| 20260902145029 | 88 | 229 | 0.0 | 4.0 | 0.00 | 0.00 | 0.00 | 46 | 1010.9 |
| 20260902144527 | 87 | 181 | 0.0 | 5.0 | 0.00 | 0.00 | 0.00 | 46 | 1010.8 |
| 20260902144026 | 87 | 169 | 1.0 | 5.0 | 0.00 | 0.00 | 0.00 | 47 | 1010.9 |
| 20260902143526 | 87 | 172 | 0.0 | 4.0 | 0.00 | 0.00 | 0.00 | 48 | 1010.8 |
| 20260902143026 | 86 | 210 | 0.0 | 2.0 | 0.00 | 0.00 | 0.00 | 48 | 1010.9 |
| 20260902142522 | 86 | 188 | 0.0 | 2.0 | 0.00 | 0.00 | 0.00 | 49 | 1010.8 |
| 20260902142021 | 86 | 209 | 0.0 | 3.0 | 0.00 | 0.00 | 0.00 | 49 | 1010.8 |
| 20260902141525 | 86 | 224 | 0.0 | 3.0 | 0.00 | 0.00 | 0.00 | 49 | 1010.7 |
| 20260902141022 | 85 | 180 | 0.0 | 2.0 | 0.00 | 0.00 | 0.00 | 50 | 1010.6 |
| 20260902140517 | 85 | 158 | 0.0 | 0.0 | 0.00 | 0.00 | 0.00 | 50 | 1010.5 |
| 20260902140029 | 84 | 289 | 0.0 | 0.0 | 0.00 | 0.00 | 0.00 | 51 | 1010.5 |
| 20260902135518 | 84 | 291 | 0.0 | 0.0 | 0.00 | 0.00 | 0.00 | 51 | 1010.4 |
| 20260902135015 | 84 | 291 | 0.0 | 0.0 | 0.00 | 0.00 | 0.00 | 51 | 1010.5 |
| 20260902134513 | 84 | 231 | 0.0 | 0.0 | 0.00 | 0.00 | 0.00 | 50 | 1010.4 |
| 20260902134011 | 84 | 240 | 0.0 | 0.0 | 0.00 | 0.00 | 0.00 | 50 | 1010.3 |
| 20260902133510 | 84 | 240 | 0.0 | 0.0 | 0.00 | 0.00 | 0.00 | 50 | 1010.3 |
| 20260902133009 | 84 | 240 | 0.0 | 0.0 | 0.00 | 0.00 | 0.00 | 50 | 1010.2 |
| 20260902132512 | 84 | 219 | 0.0 | 0.0 | 0.00 | 0.00 | 0.00 | 49 | 1010.1 |
| 20260902132007 | 84 | 215 | 0.0 | 0.0 | 0.00 | 0.00 | 0.00 | 49 | 1010.2 |
| 20260902131506 | 84 | 215 | 0.0 | 0.0 | 0.00 | 0.00 | 0.00 | 48 | 1010.1 |
| 20260902131007 | 84 | 250 | 0.0 | 0.0 | 0.00 | 0.00 | 0.00 | 48 | 1010.1 |
| 20260902130504 | 84 | 250 | 0.0 | 0.0 | 0.00 | 0.00 | 0.00 | 48 | 1010.0 |
| 20260902130004 | 85 | 280 | 0.0 | 0.0 | 0.00 | 0.00 | 0.00 | 48 | 1009.9 |
| 20260902125504 | 85 | 280 | 0.0 | 0.0 | 0.00 | 0.00 | 0.00 | 47 | 1009.9 |
| 20260902125002 | 85 | 280 | 0.0 | 0.0 | 0.00 | 0.00 | 0.00 | 47 | 1009.8 |
| 20260902124501 | 85 | 280 | 0.0 | 2.0 | 0.00 | 0.00 | 0.00 | 47 | 1009.7 |
| 20260902124104 | 85 | 280 | 0.0 | 2.0 | 0.00 | 0.00 | 0.00 | 47 | 1009.6 |
| 20260902123559 | 85 | 236 | 0.0 | 2.0 | 0.00 | 0.00 | 0.00 | 46 | 1009.6 |
| 20260902123102 | 85 | 251 | 0.0 | 2.0 | 0.00 | 0.00 | 0.00 | 47 | 1009.6 |
| 20260902122600 | 85 | 219 | 0.0 | 2.0 | 0.00 | 0.00 | 0.00 | 46 | 1009.5 |
| 20260902122057 | 86 | 242 | 0.0 | 3.0 | 0.00 | 0.00 | 0.00 | 46 | 1009.4 |
| 20260902121610 | 86 | 279 | 0.0 | 4.0 | 0.00 | 0.00 | 0.00 | 46 | 1009.4 |
| 20260902121057 | 86 | 253 | 1.0 | 5.0 | 0.00 | 0.00 | 0.00 | 46 | 1009.3 |
| 20260902120555 | 86 | 254 | 1.0 | 6.0 | 0.00 | 0.00 | 0.00 | 46 | 1009.4 |
| 20260902120106 | 86 | 250 | 1.0 | 6.0 | 0.00 | 0.00 | 0.00 | 45 | 1009.4 |
| 20260902115555 | 86 | 317 | 3.0 | 6.0 | 0.00 | 0.00 | 0.00 | 46 | 1009.4 |
| 20260902115054 | 86 | 269 | 2.0 | 6.0 | 0.00 | 0.00 | 0.00 | 45 | 1009.3 |
| 20260902114612 | 86 | 213 | 1.0 | 4.0 | 0.00 | 0.00 | 0.00 | 45 | 1009.3 |
| 20260902114054 | 86 | 217 | 0.0 | 5.0 | 0.00 | 0.00 | 0.00 | 45 | 1009.3 |
| 20260902113553 | 86 | 244 | 1.0 | 5.0 | 0.00 | 0.00 | 0.00 | 45 | 1009.3 |
| 20260902113059 | 86 | 223 | 0.0 | 2.0 | 0.00 | 0.00 | 0.00 | 44 | 1009.2 |
| 20260902112552 | 87 | 234 | 0.0 | 3.0 | 0.00 | 0.00 | 0.00 | 44 | 1009.2 |
| 20260902112053 | 87 | 255 | 0.0 | 4.0 | 0.00 | 0.00 | 0.00 | 44 | 1009.1 |
| 20260902111600 | 87 | 242 | 0.0 | 4.0 | 0.00 | 0.00 | 0.00 | 43 | 1009.1 |
| 20260902111050 | 87 | 228 | 0.0 | 5.0 | 0.00 | 0.00 | 0.00 | 43 | 1009.1 |
| 20260902110550 | 87 | 256 | 0.0 | 5.0 | 0.00 | 0.00 | 0.00 | 43 | 1009.1 |
| 20260902110054 | 87 | 283 | 1.0 | 4.0 | 0.00 | 0.00 | 0.00 | 42 | 1009.1 |
| 20260902105549 | 87 | 277 | 1.0 | 4.0 | 0.00 | 0.00 | 0.00 | 42 | 1009.0 |
| 20260902105048 | 88 | 263 | 0.0 | 3.0 | 0.00 | 0.00 | 0.00 | 41 | 1009.0 |
| 20260902104548 | 88 | 269 | 0.0 | 4.0 | 0.00 | 0.00 | 0.00 | 41 | 1009.1 |
| 20260902104050 | 88 | 234 | 1.0 | 4.0 | 0.00 | 0.00 | 0.00 | 41 | 1009.1 |
| 20260902103549 | 88 | 240 | 0.0 | 6.0 | 0.00 | 0.00 | 0.00 | 41 | 1009.0 |
| 20260902103100 | 88 | 273 | 3.0 | 6.0 | 0.00 | 0.00 | 0.00 | 40 | 1009.1 |
| 20260902102546 | 88 | 268 | 2.0 | 4.0 | 0.00 | 0.00 | 0.00 | 41 | 1009.1 |
| 20260902102045 | 88 | 307 | 0.0 | 5.0 | 0.00 | 0.00 | 0.00 | 41 | 1009.1 |
| 20260902101544 | 88 | 277 | 2.0 | 5.0 | 0.00 | 0.00 | 0.00 | 40 | 1009.1 |
| 20260902101044 | 89 | 281 | 1.0 | 8.0 | 0.00 | 0.00 | 0.00 | 41 | 1009.1 |
| 20260902100547 | 89 | 271 | 3.0 | 8.0 | 0.00 | 0.00 | 0.00 | 41 | 1009.1 |
| 20260902100044 | 89 | 252 | 1.0 | 7.0 | 0.00 | 0.00 | 0.00 | 40 | 1009.1 |
| 20260902095544 | 89 | 257 | 2.0 | 7.0 | 0.00 | 0.00 | 0.00 | 40 | 1009.1 |
| 20260902095043 | 89 | 247 | 4.0 | 9.0 | 0.00 | 0.00 | 0.00 | 40 | 1009.0 |
| 20260902094548 | 89 | 315 | 3.0 | 9.0 | 0.00 | 0.00 | 0.00 | 40 | 1009.1 |
| 20260902094044 | 89 | 259 | 2.0 | 9.0 | 0.00 | 0.00 | 0.00 | 41 | 1009.1 |
| 20260902093544 | 89 | 263 | 5.0 | 9.0 | 0.00 | 0.00 | 0.00 | 41 | 1009.2 |
| 20260902093043 | 89 | 250 | 3.0 | 7.0 | 0.00 | 0.00 | 0.00 | 41 | 1009.1 |
| 20260902092543 | 89 | 252 | 2.0 | 7.0 | 0.00 | 0.00 | 0.00 | 42 | 1009.1 |
| 20260902092043 | 89 | 261 | 2.0 | 5.0 | 0.00 | 0.00 | 0.00 | 42 | 1009.1 |
| 20260902091550 | 89 | 255 | 1.0 | 9.0 | 0.00 | 0.00 | 0.00 | 41 | 1009.1 |
| 20260902091042 | 89 | 281 | 3.0 | 9.0 | 0.00 | 0.00 | 0.00 | 41 | 1009.1 |
| 20260902090543 | 89 | 250 | 3.0 | 8.0 | 0.00 | 0.00 | 0.00 | 42 | 1009.1 |
| 20260902090051 | 89 | 279 | 2.0 | 8.0 | 0.00 | 0.00 | 0.00 | 42 | 1009.2 |
| 20260902085540 | 89 | 272 | 2.0 | 9.0 | 0.00 | 0.00 | 0.00 | 42 | 1009.3 |
| 20260902085041 | 89 | 267 | 4.0 | 9.0 | 0.00 | 0.00 | 0.00 | 42 | 1009.2 |
| 20260902084541 | 89 | 277 | 2.0 | 8.0 | 0.00 | 0.00 | 0.00 | 42 | 1009.3 |
| 20260902084039 | 89 | 254 | 1.0 | 4.0 | 0.00 | 0.00 | 0.00 | 42 | 1009.3 |
| 20260902083539 | 89 | 270 | 1.0 | 6.0 | 0.00 | 0.00 | 0.00 | 42 | 1009.3 |
| 20260902083044 | 89 | 279 | 1.0 | 6.0 | 0.00 | 0.00 | 0.00 | 42 | 1009.4 |
| 20260902082539 | 89 | 241 | 2.0 | 6.0 | 0.00 | 0.00 | 0.00 | 42 | 1009.4 |
| 20260902082039 | 89 | 249 | 2.0 | 6.0 | 0.00 | 0.00 | 0.00 | 41 | 1009.4 |
| 20260902081541 | 90 | 277 | 0.0 | 8.0 | 0.00 | 0.00 | 0.00 | 41 | 1009.4 |
| 20260902081037 | 90 | 231 | 2.0 | 8.0 | 0.00 | 0.00 | 0.00 | 41 | 1009.4 |
| 20260902080537 | 90 | 248 | 2.0 | 7.0 | 0.00 | 0.00 | 0.00 | 41 | 1009.3 |
| 20260902080037 | 90 | 259 | 2.0 | 7.0 | 0.00 | 0.00 | 0.00 | 40 | 1009.4 |
| 20260902075537 | 90 | 284 | 2.0 | 7.0 | 0.00 | 0.00 | 0.00 | 40 | 1009.3 |
| 20260902075035 | 90 | 274 | 2.0 | 7.0 | 0.00 | 0.00 | 0.00 | 40 | 1009.3 |
| 20260902074545 | 90 | 265 | 3.0 | 7.0 | 0.00 | 0.00 | 0.00 | 40 | 1009.3 |
| 20260902074035 | 90 | 287 | 3.0 | 7.0 | 0.00 | 0.00 | 0.00 | 40 | 1009.1 |
| 20260902073534 | 90 | 254 | 2.0 | 6.0 | 0.00 | 0.00 | 0.00 | 40 | 1009.2 |
| 20260902073037 | 90 | 221 | 3.0 | 6.0 | 0.00 | 0.00 | 0.00 | 40 | 1009.2 |
| 20260902072532 | 90 | 237 | 2.0 | 7.0 | 0.00 | 0.00 | 0.00 | 40 | 1009.2 |
| 20260902072034 | 91 | 290 | 2.0 | 7.0 | 0.00 | 0.00 | 0.00 | 40 | 1009.1 |
| 20260902071531 | 91 | 248 | 2.0 | 7.0 | 0.00 | 0.00 | 0.00 | 40 | 1009.1 |
| 20260902071032 | 91 | 289 | 3.0 | 7.0 | 0.00 | 0.00 | 0.00 | 39 | 1009.1 |
| 20260902070530 | 91 | 269 | 3.0 | 10.0 | 0.00 | 0.00 | 0.00 | 39 | 1009.1 |
| 20260902070029 | 91 | 254 | 5.0 | 10.0 | 0.00 | 0.00 | 0.00 | 39 | 1009.0 |
| 20260902065529 | 90 | 284 | 3.0 | 6.0 | 0.00 | 0.00 | 0.00 | 40 | 1009.0 |
| 20260902065029 | 90 | 307 | 3.0 | 7.0 | 0.00 | 0.00 | 0.00 | 40 | 1009.0 |
| 20260902064533 | 90 | 228 | 3.0 | 7.0 | 0.00 | 0.00 | 0.00 | 40 | 1008.9 |
| 20260902064031 | 90 | 253 | 2.0 | 8.0 | 0.00 | 0.00 | 0.00 | 41 | 1008.9 |
| 20260902063530 | 89 | 254 | 4.0 | 8.0 | 0.00 | 0.00 | 0.00 | 41 | 1008.9 |
| 20260902063029 | 89 | 244 | 2.0 | 5.0 | 0.00 | 0.00 | 0.00 | 42 | 1008.9 |
| 20260902062530 | 89 | 256 | 0.0 | 2.0 | 0.00 | 0.00 | 0.00 | 42 | 1008.9 |
| 20260902062028 | 89 | 257 | 0.0 | 4.0 | 0.00 | 0.00 | 0.00 | 41 | 1008.9 |
| 20260902061539 | 89 | 267 | 1.0 | 4.0 | 0.00 | 0.00 | 0.00 | 41 | 1008.9 |
| 20260902061028 | 89 | 250 | 0.0 | 2.0 | 0.00 | 0.00 | 0.00 | 41 | 1008.9 |
| 20260902060527 | 89 | 263 | 0.0 | 2.0 | 0.00 | 0.00 | 0.00 | 41 | 1008.9 |
| 20260902060042 | 89 | 239 | 0.0 | 2.0 | 0.00 | 0.00 | 0.00 | 41 | 1008.9 |
| 20260902055528 | 89 | 254 | 0.0 | 2.0 | 0.00 | 0.00 | 0.00 | 40 | 1009.0 |
| 20260902055028 | 90 | 281 | 0.0 | 3.0 | 0.00 | 0.00 | 0.00 | 40 | 1009.1 |
| 20260902054537 | 90 | 244 | 0.0 | 3.0 | 0.00 | 0.00 | 0.00 | 40 | 1009.1 |
| 20260902054030 | 90 | 259 | 0.0 | 2.0 | 0.00 | 0.00 | 0.00 | 41 | 1009.1 |
| 20260902053527 | 90 | 223 | 0.0 | 2.0 | 0.00 | 0.00 | 0.00 | 41 | 1009.2 |
| 20260902053028 | 90 | 210 | 0.0 | 2.0 | 0.00 | 0.00 | 0.00 | 40 | 1009.2 |
| 20260902052526 | 90 | 221 | 0.0 | 2.0 | 0.00 | 0.00 | 0.00 | 41 | 1009.1 |
| 20260902052031 | 90 | 203 | 0.0 | 3.0 | 0.00 | 0.00 | 0.00 | 42 | 1009.2 |
| 20260902051526 | 90 | 209 | 0.0 | 5.0 | 0.00 | 0.00 | 0.00 | 41 | 1009.2 |
| 20260902051029 | 90 | 183 | 1.0 | 5.0 | 0.00 | 0.00 | 0.00 | 41 | 1009.2 |
| 20260902050526 | 90 | 185 | 1.0 | 5.0 | 0.00 | 0.00 | 0.00 | 42 | 1009.3 |
| 20260902050027 | 90 | 139 | 0.0 | 2.0 | 0.00 | 0.00 | 0.00 | 43 | 1009.2 |
| 20260902045525 | 90 | 234 | 0.0 | 0.0 | 0.00 | 0.00 | 0.00 | 46 | 1009.1 |
| 20260902045028 | 90 | 234 | 0.0 | 0.0 | 0.00 | 0.00 | 0.00 | 46 | 1009.1 |
| 20260902044525 | 90 | 234 | 0.0 | 0.0 | 0.00 | 0.00 | 0.00 | 47 | 1009.0 |
| 20260902044026 | 91 | 234 | 0.0 | 0.0 | 0.00 | 0.00 | 0.00 | 45 | 1009.0 |
| 20260902043525 | 91 | 234 | 0.0 | 0.0 | 0.00 | 0.00 | 0.00 | 45 | 1008.9 |
| 20260902043026 | 91 | 234 | 0.0 | 0.0 | 0.00 | 0.00 | 0.00 | 44 | 1008.8 |
| 20260902042525 | 91 | 234 | 0.0 | 0.0 | 0.00 | 0.00 | 0.00 | 43 | 1008.8 |
| 20260902042024 | 91 | 234 | 0.0 | 0.0 | 0.00 | 0.00 | 0.00 | 46 | 1008.7 |
| 20260902041528 | 92 | 155 | 0.0 | 0.0 | 0.00 | 0.00 | 0.00 | 44 | 1008.7 |
| 20260902041025 | 92 | 155 | 0.0 | 0.0 | 0.00 | 0.00 | 0.00 | 45 | 1008.6 |
| 20260902040524 | 92 | 155 | 0.0 | 0.0 | 0.00 | 0.00 | 0.00 | 44 | 1008.5 |
| 20260902040024 | 92 | 155 | 0.0 | 0.0 | 0.00 | 0.00 | 0.00 | 43 | 1008.5 |
| 20260902035523 | 93 | 155 | 0.0 | 0.0 | 0.00 | 0.00 | 0.00 | 41 | 1008.4 |
| 20260902035023 | 93 | 161 | 0.0 | 0.0 | 0.00 | 0.00 | 0.00 | 39 | 1008.3 |
| 20260902034526 | 93 | 161 | 0.0 | 2.0 | 0.00 | 0.00 | 0.00 | 39 | 1008.2 |
| 20260902034025 | 93 | 153 | 0.0 | 2.0 | 0.00 | 0.00 | 0.00 | 38 | 1008.1 |
| 20260902033525 | 93 | 197 | 0.0 | 2.0 | 0.00 | 0.00 | 0.00 | 37 | 1008.0 |
| 20260902033023 | 93 | 171 | 0.0 | 2.0 | 0.00 | 0.00 | 0.00 | 36 | 1008.0 |
| 20260902032524 | 93 | 162 | 0.0 | 2.0 | 0.00 | 0.00 | 0.00 | 36 | 1007.9 |
| 20260902032022 | 94 | 169 | 0.0 | 2.0 | 0.00 | 0.00 | 0.00 | 36 | 1007.8 |
| 20260902031522 | 94 | 228 | 0.0 | 0.0 | 0.00 | 0.00 | 0.00 | 36 | 1007.8 |
| 20260902031022 | 94 | 228 | 0.0 | 0.0 | 0.00 | 0.00 | 0.00 | 36 | 1007.8 |
| 20260902030522 | 94 | 228 | 0.0 | 1.0 | 0.00 | 0.00 | 0.00 | 36 | 1007.7 |
| 20260902030021 | 95 | 228 | 0.0 | 1.0 | 0.00 | 0.00 | 0.00 | 34 | 1007.5 |
| 20260902025521 | 95 | 228 | 0.0 | 0.0 | 0.00 | 0.00 | 0.00 | 33 | 1007.4 |
| 20260902025022 | 95 | 228 | 0.0 | 0.0 | 0.00 | 0.00 | 0.00 | 32 | 1007.3 |
| 20260902024521 | 95 | 228 | 0.0 | 0.0 | 0.00 | 0.00 | 0.00 | 32 | 1007.3 |
| 20260902024025 | 95 | 228 | 0.0 | 2.0 | 0.00 | 0.00 | 0.00 | 32 | 1007.3 |
| 20260902023521 | 96 | 228 | 0.0 | 3.0 | 0.00 | 0.00 | 0.00 | 31 | 1007.3 |
| 20260902023021 | 96 | 275 | 1.0 | 3.0 | 0.00 | 0.00 | 0.00 | 31 | 1007.2 |
| 20260902022521 | 96 | 261 | 0.0 | 2.0 | 0.00 | 0.00 | 0.00 | 31 | 1007.2 |
| 20260902022020 | 96 | 200 | 0.0 | 2.0 | 0.00 | 0.00 | 0.00 | 31 | 1007.1 |
| 20260902021520 | 96 | 230 | 0.0 | 3.0 | 0.00 | 0.00 | 0.00 | 30 | 1007.1 |
| 20260902021020 | 96 | 267 | 0.0 | 3.0 | 0.00 | 0.00 | 0.00 | 30 | 1007.1 |
| 20260902020520 | 97 | 234 | 0.0 | 3.0 | 0.00 | 0.00 | 0.00 | 31 | 1007.1 |
| 20260902020019 | 97 | 234 | 0.0 | 3.0 | 0.00 | 0.00 | 0.00 | 30 | 1007.2 |
| 20260902015519 | 97 | 217 | 0.0 | 2.0 | 0.00 | 0.00 | 0.00 | 30 | 1007.1 |
| 20260902015019 | 98 | 190 | 0.0 | 2.0 | 0.00 | 0.00 | 0.00 | 30 | 1007.2 |
| 20260902014526 | 98 | 161 | 0.0 | 2.0 | 0.00 | 0.00 | 0.00 | 30 | 1007.1 |
| 20260902014019 | 98 | 219 | 0.0 | 2.0 | 0.00 | 0.00 | 0.00 | 30 | 1007.1 |
| 20260902013519 | 99 | 225 | 0.0 | 2.0 | 0.00 | 0.00 | 0.00 | 30 | 1007.1 |
| 20260902013019 | 99 | 150 | 0.0 | 4.0 | 0.00 | 0.00 | 0.00 | 30 | 1007.1 |
| 20260902012519 | 99 | 272 | 1.0 | 4.0 | 0.00 | 0.00 | 0.00 | 29 | 1007.1 |
| 20260902012019 | 99 | 190 | 0.0 | 2.0 | 0.00 | 0.00 | 0.00 | 29 | 1007.0 |
| 20260902011518 | 100 | 157 | 0.0 | 3.0 | 0.00 | 0.00 | 0.00 | 29 | 1007.0 |
| 20260902011017 | 100 | 263 | 0.0 | 3.0 | 0.00 | 0.00 | 0.00 | 29 | 1006.9 |
| 20260902010516 | 100 | 282 | 1.0 | 4.0 | 0.00 | 0.00 | 0.00 | 29 | 1007.0 |
| 20260902010028 | 100 | 227 | 1.0 | 5.0 | 0.00 | 0.00 | 0.00 | 29 | 1007.1 |
| 20260902005516 | 100 | 165 | 1.0 | 7.0 | 0.00 | 0.00 | 0.00 | 30 | 1007.1 |
| 20260902005017 | 101 | 300 | 3.0 | 7.0 | 0.00 | 0.00 | 0.00 | 28 | 1007.1 |
| 20260902004514 | 101 | 295 | 2.0 | 5.0 | 0.00 | 0.00 | 0.00 | 28 | 1007.3 |
| 20260902004014 | 101 | 150 | 0.0 | 6.0 | 0.00 | 0.00 | 0.00 | 28 | 1007.3 |
| 20260902003513 | 102 | 290 | 2.0 | 6.0 | 0.00 | 0.00 | 0.00 | 28 | 1007.4 |
| 20260902003016 | 102 | 253 | 2.0 | 5.0 | 0.00 | 0.00 | 0.00 | 28 | 1007.4 |
| 20260902002512 | 102 | 217 | 1.0 | 3.0 | 0.00 | 0.00 | 0.00 | 28 | 1007.5 |
| 20260902002012 | 102 | 143 | 0.0 | 3.0 | 0.00 | 0.00 | 0.00 | 29 | 1007.5 |
| 20260902001516 | 102 | 233 | 1.0 | 3.0 | 0.00 | 0.00 | 0.00 | 29 | 1007.5 |
| 20260902001011 | 102 | 241 | 1.0 | 3.0 | 0.00 | 0.00 | 0.00 | 29 | 1007.6 |
| 20260902000510 | 102 | 159 | 1.0 | 4.0 | 0.00 | 0.00 | 0.00 | 30 | 1007.6 |
| 20260902000019 | 102 | 226 | 1.0 | 4.0 | 0.00 | 0.00 | 0.00 | 30 | 1007.5 |
| 20260901235510 | 102 | 227 | 1.0 | 4.0 | 0.00 | 0.00 | 0.00 | 30 | 1007.6 |